Location: Pine Mountain Observatory
(43.7910°N, 120.9377°W)
Time: 19:24:24
(UTC-07:00)

Explorer 11/Cluster Stage 4 - All Passes

Search period start: 26 May 2019 00:00
Search period end: 05 June 2019 00:00
Orbit: 467 x 1260 km, 28.8° (Epoch: 25 May)

Date Brightness Start Highest point End Pass type
(mag) Time Alt. Az. Time Alt. Az. Time Alt. Az.
26 May - 02:53:31 10° S 02:55:28 12° S 02:57:17 10° SSE visible
26 May - 04:40:39 10° SSW 04:43:09 13° S 04:45:24 10° SSE visible
27 May - 02:41:50 10° SSW 02:44:47 14° S 02:47:29 10° SE visible
27 May - 04:29:35 10° SW 04:32:29 15° S 04:35:06 10° SSE visible
28 May - 02:30:23 10° SSW 02:34:05 16° S 02:37:23 10° SE visible
28 May - 04:18:33 10° SW 04:21:49 15° S 04:24:44 10° SSE visible
29 May - 00:33:28 10° S 00:35:25 11° SSE 00:37:16 10° SE night (unlit)
29 May - 02:19:05 10° SW 02:23:21 18° S 02:27:10 10° SE visible
29 May - 04:07:34 10° SW 04:11:07 16° S 04:14:17 10° SSE visible
30 May - 00:21:18 10° S 00:24:37 13° SSE 00:27:43 10° SE night (unlit)
30 May - 02:07:50 10° SW 02:12:36 19° S 02:16:50 10° SE visible
30 May - 03:56:36 10° SW 04:00:25 17° SSW 04:03:48 10° SSE visible
31 May - 00:09:36 10° SSW 00:13:47 15° SSE 00:17:42 10° SE night (unlit)
31 May - 01:56:39 10° SW 02:01:50 21° S 02:06:25 10° SE visible
31 May - 03:45:38 10° SW 03:49:41 17° SSW 03:53:15 10° SSE visible
31 May - 23:58:06 10° SSW 00:02:57 17° SSE 00:07:28 10° SE night (unlit)
01 Jun - 01:45:31 10° SW 01:51:04 22° S 01:55:56 10° SE visible
01 Jun - 03:34:43 10° SW 03:38:55 17° SSW 03:42:39 10° SSE visible
01 Jun - 23:46:45 10° SSW 23:52:06 19° SSE 23:57:05 10° SE visible
02 Jun - 01:34:26 10° SW 01:40:15 23° S 01:45:24 10° SE visible
02 Jun - 03:23:49 10° SW 03:28:08 17° SSW 03:31:59 10° SSE visible
02 Jun - 21:51:13 10° SSE 21:53:11 11° SSE 21:55:08 10° SE visible
02 Jun - 23:35:29 10° SSW 23:41:13 21° SSE 23:46:37 10° ESE visible
03 Jun - 01:23:24 10° SW 01:29:25 24° S 01:34:49 10° SE night (unlit)
03 Jun - 03:12:57 10° WSW 03:17:19 17° SSW 03:21:15 10° SSE visible
03 Jun - 21:39:03 10° S 21:42:15 13° SSE 21:45:27 10° SE visible
03 Jun - 23:24:18 10° SW 23:30:20 23° S 23:36:04 10° ESE visible
04 Jun - 01:12:23 10° SW 01:18:33 25° S 01:24:10 10° SE night (unlit)
04 Jun - 03:02:07 10° WSW 03:06:29 17° SSW 03:10:27 10° SSE visible
04 Jun - 21:27:23 10° S 21:31:19 14° SSE 21:35:18 10° SE visible
04 Jun - 23:13:11 10° SW 23:19:26 24° S 23:25:26 10° ESE visible
